GW2878 Weather Reports


Display with metric or nautical units.
time (UTC)temp
F
wind
direction
speed
MPH
gust
MPH
rain 1hr
in
rain 24hr
in
rain mn
in
humidity
%
barometer
mb
20260502130613 39 291 9.0 13.0 0.00 0.00 0.00 57 1015.5
20260502130110 38 299 10.0 11.0 0.00 0.00 0.00 58 1015.5
20260502123550 37 343 5.0 9.0 0.00 0.00 0.00 59 1015.5
20260502123046 37 322 2.0 4.0 0.00 0.00 0.00 59 1015.3
20260502122543 37 291 5.0 8.0 0.00 0.00 0.00 58 1015.4
20260502122040 38 275 8.0 14.0 0.00 0.00 0.00 57 1015.5
20260502121537 38 298 13.0 16.0 0.00 0.00 0.00 55 1015.1
20260502121035 37 291 11.0 16.0 0.00 0.00 0.00 57 1015.3
20260502120531 38 308 9.0 15.0 0.00 0.00 0.00 57 1015.2
20260502115526 38 299 13.0 15.0 0.00 0.00 0.00 57 1015.4
20260502115022 38 273 8.0 13.0 0.00 0.00 0.00 57 1015.4
20260502114519 38 268 10.0 15.0 0.00 0.00 0.00 56 1015.4
20260502114015 38 283 11.0 16.0 0.00 0.00 0.00 56 1015.6
20260502113513 37 275 12.0 14.0 0.00 0.00 0.00 58 1015.5
20260502113011 38 305 8.0 11.0 0.00 0.00 0.00 58 1015.4
20260502112509 38 292 6.0 9.0 0.00 0.00 0.00 57 1015.6
20260502112006 38 329 9.0 10.0 0.00 0.00 0.00 56 1015.6
20260502111504 39 345 6.0 10.0 0.00 0.00 0.00 56 1015.5
20260502111001 39 283 11.0 15.0 0.00 0.00 0.00 54 1015.5
20260502110458 37 298 11.0 15.0 0.00 0.00 0.00 58 1015.6
20260502105955 38 330 5.0 7.0 0.00 0.00 0.00 59 1015.8
20260502105453 39 284 10.0 15.0 0.00 0.00 0.00 55 1015.6
20260502104950 39 294 12.0 14.0 0.00 0.00 0.00 54 1015.6
20260502104447 39 294 11.0 14.0 0.00 0.00 0.00 56 1015.9
20260502103945 40 293 12.0 16.0 0.00 0.00 0.00 54 1016.1
20260502103442 39 289 13.0 15.0 0.00 0.00 0.00 57 1015.8
20260502102939 39 286 13.0 16.0 0.00 0.00 0.00 56 1015.5
20260502102436 38 284 11.0 14.0 0.00 0.00 0.00 58 1015.6
20260502101933 40 265 14.0 16.0 0.00 0.00 0.00 55 1015.6
20260502101431 40 293 14.0 17.0 0.00 0.00 0.00 55 1015.6
20260502100929 40 314 13.0 16.0 0.00 0.00 0.00 55 1015.5
20260502100428 39 311 12.0 15.0 0.00 0.00 0.00 57 1015.6
20260502091402 37 286 8.0 9.0 0.00 0.00 0.00 67 1015.8
20260502090859 37 262 6.0 8.0 0.00 0.00 0.00 67 1015.5
20260502090355 37 288 6.0 10.0 0.00 0.00 0.00 67 1015.9
20260502071250 40 329 4.0 8.0 0.00 0.00 0.00 61 1016.1
20260502070748 40 331 2.0 8.0 0.00 0.00 0.00 62 1016.1
20260502070245 40 314 5.0 11.0 0.00 0.00 0.00 61 1016.3
20260502065744 41 285 6.0 7.0 0.00 0.00 0.00 60 1016.3
20260502065242 41 315 3.0 4.0 0.00 0.00 0.00 57 1016.3
20260502064740 41 301 4.0 7.0 0.00 0.00 0.00 58 1016.2
20260502064238 42 302 4.0 6.0 0.00 0.00 0.00 57 1016.0
20260502063735 42 338 4.0 7.0 0.00 0.00 0.00 58 1016.0
20260502063233 41 332 4.0 10.0 0.00 0.00 0.00 58 1016.3
20260502062730 41 294 9.0 10.0 0.00 0.00 0.00 59 1016.3
20260502062227 43 276 8.0 9.0 0.00 0.00 0.00 51 1016.3
20260502061726 41 295 8.0 9.0 0.00 0.00 0.00 51 1016.1
20260502061223 43 307 5.0 6.0 0.00 0.00 0.00 51 1016.0
20260502060719 44 271 3.0 4.0 0.00 0.00 0.00 46 1016.2
20260502060215 44 281 3.0 4.0 0.00 0.00 0.00 47 1016.3
20260502055713 47 300 3.0 4.0 0.00 0.00 0.00 49 1016.1
20260502055210 48 284 1.0 2.0 0.00 0.00 0.00 63 1016.2
20260502054709 47 312 0.0 1.0 0.00 0.00 0.00 63 1016.2
20260502054206 47 321 0.0 1.0 0.00 0.00 0.00 61 1016.1
20260502053704 48 335 1.0 1.0 0.00 0.00 0.00 61 1016.1
20260502053201 48 332 0.0 0.0 0.00 0.00 0.00 57 1016.0
20260502052659 48 329 0.0 0.0 0.00 0.00 0.00 56 1016.1
20260502052157 48 349 1.0 2.0 0.00 0.00 0.00 53 1016.0
20260502051655 49 342 0.0 0.0 0.00 0.00 0.00 34 1016.1
20260502051152 49 320 0.0 0.0 0.00 0.00 0.00 34 1016.1
20260502050642 49 351 0.0 0.0 0.00 0.00 0.00 34 1016.0
20260502050139 50 345 0.0 0.0 0.00 0.00 0.00 33 1016.1
20260502045636 49 312 0.0 0.0 0.00 0.00 0.00 33 1016.0
20260502045134 49 287 0.0 1.0 0.00 0.00 0.00 34 1016.1
20260502044630 51 243 3.0 6.0 0.00 0.00 0.00 36 1016.1
20260502044126 52 357 0.0 2.0 0.00 0.00 0.00 30 1016.0
20260502043624 52 194 1.0 2.0 0.00 0.00 0.00 30 1016.1
20260502043120 52 172 2.0 2.0 0.00 0.00 0.00 30 1016.2
20260502042615 51 222 1.0 2.0 0.00 0.00 0.00 31 1016.1
20260502042112 51 216 2.0 3.0 0.00 0.00 0.00 31 1016.2
20260502041610 51 221 1.0 3.0 0.00 0.00 0.00 31 1016.2
20260502041107 50 236 3.0 3.0 0.00 0.00 0.00 35 1016.2
20260502040604 51 239 5.0 6.0 0.00 0.00 0.00 35 1016.2
20260502035556 53 4 2.0 2.0 0.00 0.00 0.00 29 1015.9
20260502035054 53 88 2.0 2.0 0.00 0.00 0.00 30 1015.9
20260502034552 52 34 1.0 2.0 0.00 0.00 0.00 30 1015.6
20260502034050 52 335 0.0 0.0 0.00 0.00 0.00 30 1016.1
20260502033548 52 356 0.0 0.0 0.00 0.00 0.00 31 1015.6
20260502033045 52 85 1.0 2.0 0.00 0.00 0.00 31 1015.6
20260502032541 52 67 3.0 4.0 0.00 0.00 0.00 29 1015.6
20260502032038 53 65 5.0 7.0 0.00 0.00 0.00 28 1015.4
20260502031536 53 88 5.0 6.0 0.00 0.00 0.00 29 1015.4
20260502031033 52 104 3.0 3.0 0.00 0.00 0.00 30 1015.5
20260502030532 53 95 3.0 4.0 0.00 0.00 0.00 30 1015.4
20260502030029 53 84 2.0 3.0 0.00 0.00 0.00 30 1015.3
20260502025526 53 80 2.0 3.0 0.00 0.00 0.00 30 1015.4
20260502025025 54 127 2.0 4.0 0.00 0.00 0.00 30 1015.4
20260502024521 55 111 2.0 3.0 0.00 0.00 0.00 29 1014.9
20260502024020 55 117 3.0 4.0 0.00 0.00 0.00 28 1015.2
20260502023517 56 351 1.0 2.0 0.00 0.00 0.00 28 1015.1
20260502023014 56 45 1.0 2.0 0.00 0.00 0.00 28 1015.1
20260502022511 56 72 2.0 2.0 0.00 0.00 0.00 28 1014.8
20260502022009 57 19 1.0 1.0 0.00 0.00 0.00 27 1014.8
20260502021506 57 98 1.0 2.0 0.00 0.00 0.00 26 1015.1
20260502021003 57 106 2.0 2.0 0.00 0.00 0.00 26 1014.7
20260502020500 58 52 1.0 2.0 0.00 0.00 0.00 25 1014.7
20260502015957 58 139 1.0 2.0 0.00 0.00 0.00 25 1014.8
20260502015455 58 225 2.0 2.0 0.00 0.00 0.00 25 1014.7
20260502014951 59 138 2.0 3.0 0.00 0.00 0.00 25 1014.5
20260502014448 59 128 2.0 4.0 0.00 0.00 0.00 24 1014.7
20260502013944 59 154 2.0 3.0 0.00 0.00 0.00 25 1014.6
20260502013440 59 159 2.0 3.0 0.00 0.00 0.00 25 1014.5
20260502012937 59 75 3.0 6.0 0.00 0.00 0.00 24 1014.5
20260502012435 59 147 3.0 4.0 0.00 0.00 0.00 24 1014.3
20260502011932 60 78 5.0 7.0 0.00 0.00 0.00 24 1014.5
20260502011428 60 120 4.0 6.0 0.00 0.00 0.00 23 1014.1
20260502010925 60 126 2.0 6.0 0.00 0.00 0.00 23 1014.5
20260502010421 60 117 4.0 4.0 0.00 0.00 0.00 22 1014.5
20260502005918 60 50 4.0 6.0 0.00 0.00 0.00 21 1014.3
20260502005416 61 144 4.0 6.0 0.00 0.00 0.00 22 1014.3
20260502004914 61 128 5.0 7.0 0.00 0.00 0.00 22 1014.5
20260502004409 62 77 5.0 8.0 0.00 0.00 0.00 22 1014.5
20260502003906 62 155 2.0 3.0 0.00 0.00 0.00 22 1014.5
20260502003403 61 357 4.0 4.0 0.00 0.00 0.00 21 1014.5
20260502002854 62 10 1.0 3.0 0.00 0.00 0.00 22 1014.3
20260502002352 62 205 0.0 3.0 0.00 0.00 0.00 22 1014.1
20260502001849 61 111 2.0 7.0 0.00 0.00 0.00 22 1014.3
20260502001346 61 86 8.0 11.0 0.00 0.00 0.00 21 1014.5
20260502000844 61 143 7.0 9.0 0.00 0.00 0.00 22 1014.3
20260502000342 61 76 4.0 11.0 0.00 0.00 0.00 23 1014.5
20260501235838 62 49 6.0 13.0 0.00 0.00 0.00 23 1014.6
20260501235334 63 355 2.0 3.0 0.00 0.00 0.00 21 1014.6
20260501234829 64 8 1.0 2.0 0.00 0.00 0.00 19 1014.3
20260501234326 62 316 1.0 3.0 0.00 0.00 0.00 22 1014.3
20260501233825 61 12 1.0 6.0 0.00 0.00 0.00 22 1014.5
20260501233322 62 11 4.0 8.0 0.00 0.00 0.00 20 1014.5
20260501232817 61 61 3.0 4.0 0.00 0.00 0.00 23 1014.2
20260501232315 62 247 1.0 6.0 0.00 0.00 0.00 22 1014.6
20260501231812 61 6 4.0 9.0 0.00 0.00 0.00 22 1014.6
20260501231310 63 333 1.0 2.0 0.00 0.00 0.00 21 1014.6
20260501230808 63 309 0.0 2.0 0.00 0.00 0.00 22 1014.5
20260501230307 61 253 3.0 4.0 0.00 0.00 0.00 21 1014.5
20260501225804 61 34 5.0 7.0 0.00 0.00 0.00 22 1014.3
20260501225305 61 12 4.0 10.0 0.00 0.00 0.00 21 1014.5
20260501224757 61 11 4.0 9.0 0.00 0.00 0.00 24 1014.3
20260501224255 62 344 1.0 3.0 0.00 0.00 0.00 22 1014.5
20260501223751 63 307 0.0 3.0 0.00 0.00 0.00 21 1014.6
20260501223247 61 3 4.0 6.0 0.00 0.00 0.00 23 1014.7
20260501222743 61 357 6.0 8.0 0.00 0.00 0.00 21 1014.7
20260501222241 62 25 9.0 11.0 0.00 0.00 0.00 22 1014.8
20260501221738 64 71 4.0 10.0 0.00 0.00 0.00 23 1014.8
20260501221235 64 3 1.0 2.0 0.00 0.00 0.00 21 1014.8
20260501220732 62 315 1.0 2.0 0.00 0.00 0.00 23 1014.8
20260501220229 61 354 4.0 4.0 0.00 0.00 0.00 23 1014.9
20260501215726 61 28 8.0 10.0 0.00 0.00 0.00 24 1014.9
20260501215222 61 348 0.0 3.0 0.00 0.00 0.00 23 1014.9
20260501214717 60 22 3.0 4.0 0.00 0.00 0.00 23 1014.9
20260501214213 60 352 2.0 8.0 0.00 0.00 0.00 23 1015.1
20260501213710 61 10 6.0 9.0 0.00 0.00 0.00 22 1015.1
20260501213206 61 326 0.0 2.0 0.00 0.00 0.00 23 1015.3
20260501212702 61 38 4.0 7.0 0.00 0.00 0.00 23 1015.1
20260501212159 61 318 2.0 4.0 0.00 0.00 0.00 24 1015.2
20260501211655 62 21 3.0 4.0 0.00 0.00 0.00 22 1015.3
20260501211153 62 228 0.0 3.0 0.00 0.00 0.00 22 1015.5
20260501210650 61 287 1.0 9.0 0.00 0.00 0.00 24 1015.3
20260501210147 60 340 5.0 9.0 0.00 0.00 0.00 24 1015.5
20260501205643 61 297 6.0 10.0 0.00 0.00 0.00 24 1015.5
20260501205141 62 320 5.0 8.0 0.00 0.00 0.00 24 1015.5
20260501204637 62 2 2.0 4.0 0.00 0.00 0.00 23 1015.4
20260501204133 61 224 0.0 3.0 0.00 0.00 0.00 24 1015.4
20260501203629 62 177 4.0 7.0 0.00 0.00 0.00 23 1015.8
20260501203127 60 229 7.0 9.0 0.00 0.00 0.00 24 1015.8
20260501202624 60 326 2.0 6.0 0.00 0.00 0.00 24 1015.4
20260501202120 61 309 4.0 8.0 0.00 0.00 0.00 24 1015.6
20260501201618 60 353 2.0 7.0 0.00 0.00 0.00 25 1015.9
20260501201114 61 260 2.0 4.0 0.00 0.00 0.00 25 1015.9
20260501200611 62 342 1.0 4.0 0.00 0.00 0.00 24 1015.6
20260501200109 61 22 1.0 2.0 0.00 0.00 0.00 25 1015.9
20260501195606 61 288 2.0 3.0 0.00 0.00 0.00 24 1016.0
20260501195101 60 310 2.0 4.0 0.00 0.00 0.00 26 1015.8
20260501194556 59 286 1.0 3.0 0.00 0.00 0.00 25 1015.9
20260501194052 59 277 2.0 7.0 0.00 0.00 0.00 26 1015.9
20260501193550 58 306 3.0 6.0 0.00 0.00 0.00 26 1015.8
20260501193049 59 302 4.0 7.0 0.00 0.00 0.00 27 1015.8
20260501192545 59 353 4.0 8.0 0.00 0.00 0.00 27 1015.9
20260501192043 58 42 6.0 8.0 0.00 0.00 0.00 28 1016.0
20260501191540 59 20 4.0 9.0 0.00 0.00 0.00 26 1015.9
20260501191037 61 171 4.0 6.0 0.00 0.00 0.00 26 1015.9
20260501190532 59 315 1.0 3.0 0.00 0.00 0.00 27 1016.1
20260501190028 59 345 0.0 1.0 0.00 0.00 0.00 25 1015.9
20260501185525 58 320 5.0 6.0 0.00 0.00 0.00 26 1016.0
20260501185021 57 18 3.0 4.0 0.00 0.00 0.00 29 1016.1
20260501184518 59 34 4.0 6.0 0.00 0.00 0.00 25 1015.9
20260501184017 59 321 0.0 3.0 0.00 0.00 0.00 27 1015.9
20260501183515 59 290 4.0 8.0 0.00 0.00 0.00 27 1016.3
20260501183011 58 343 4.0 7.0 0.00 0.00 0.00 26 1016.2
20260501182508 57 284 3.0 7.0 0.00 0.00 0.00 28 1016.2
20260501182005 57 14 3.0 4.0 0.00 0.00 0.00 26 1016.2
20260501181502 57 303 1.0 6.0 0.00 0.00 0.00 27 1016.2
20260501180959 57 308 2.0 7.0 0.00 0.00 0.00 26 1016.2
20260501180456 57 30 4.0 6.0 0.00 0.00 0.00 28 1016.2
20260501175952 55 27 2.0 4.0 0.00 0.00 0.00 29 1016.1
20260501175449 56 14 4.0 8.0 0.00 0.00 0.00 29 1016.5
20260501174946 57 347 7.0 8.0 0.00 0.00 0.00 28 1016.2
20260501174444 54 227 0.0 8.0 0.00 0.00 0.00 30 1016.3
20260501173941 54 272 5.0 8.0 0.00 0.00 0.00 29 1016.5
20260501173439 56 332 2.0 7.0 0.00 0.00 0.00 29 1016.5
20260501172934 56 347 3.0 8.0 0.00 0.00 0.00 29 1016.5
20260501172430 55 307 1.0 2.0 0.00 0.00 0.00 29 1016.5
20260501171925 55 236 0.0 7.0 0.00 0.00 0.00 29 1016.6
20260501171422 55 266 2.0 3.0 0.00 0.00 0.00 30 1016.5
20260501170918 54 272 8.0 10.0 0.00 0.00 0.00 30 1016.6
20260501170415 54 213 4.0 4.0 0.00 0.00 0.00 31 1016.6
20260501165913 55 246 7.0 11.0 0.00 0.00 0.00 30 1016.5
20260501165411 54 17 0.0 10.0 0.00 0.00 0.00 30 1016.5
20260501164908 54 277 0.0 1.0 0.00 0.00 0.00 30 1016.3
20260501164406 56 260 4.0 6.0 0.00 0.00 0.00 30 1016.5
20260501163902 55 123 1.0 1.0 0.00 0.00 0.00 32 1016.3
20260501163358 53 334 3.0 8.0 0.00 0.00 0.00 30 1016.6
20260501162855 53 273 2.0 8.0 0.00 0.00 0.00 31 1016.3
20260501162352 54 212 2.0 6.0 0.00 0.00 0.00 32 1016.5
20260501161849 54 195 4.0 7.0 0.00 0.00 0.00 33 1016.3
20260501161346 54 192 4.0 6.0 0.00 0.00 0.00 33 1016.3
20260501160842 52 250 6.0 8.0 0.00 0.00 0.00 35 1016.5
20260501160339 52 267 9.0 10.0 0.00 0.00 0.00 34 1016.3
20260501155837 51 264 11.0 13.0 0.00 0.00 0.00 37 1016.5
20260501155333 51 291 12.0 16.0 0.00 0.00 0.00 38 1016.7
20260501154830 51 299 13.0 15.0 0.00 0.00 0.00 38 1016.6
20260501154327 51 272 11.0 14.0 0.00 0.00 0.00 37 1016.6
20260501153825 50 270 10.0 15.0 0.00 0.00 0.00 39 1016.8
20260501153322 49 276 8.0 13.0 0.00 0.00 0.00 41 1016.5
20260501152818 49 271 9.0 11.0 0.00 0.00 0.00 41 1016.7
20260501152316 48 258 7.0 13.0 0.00 0.00 0.00 43 1016.7
20260501151813 48 263 11.0 13.0 0.00 0.00 0.00 43 1016.8
20260501151309 47 298 13.0 17.0 0.00 0.00 0.00 43 1016.8
20260501150805 47 288 13.0 17.0 0.00 0.00 0.00 43 1016.9
20260501150302 46 293 11.0 18.0 0.00 0.00 0.00 46 1016.7
20260501145757 46 291 13.0 19.0 0.00 0.00 0.00 46 1016.7
20260501145255 46 276 14.0 16.0 0.00 0.00 0.00 46 1016.7
20260501144751 45 301 14.0 17.0 0.00 0.00 0.00 47 1016.5
20260501144247 44 279 14.0 19.0 0.00 0.00 0.00 48 1016.7
20260501143744 44 283 13.0 18.0 0.00 0.00 0.00 49 1016.6
20260501143241 44 311 12.0 17.0 0.00 0.00 0.00 50 1016.6
20260501142738 44 304 15.0 17.0 0.00 0.00 0.00 50 1016.5
20260501142234 43 273 15.0 18.0 0.00 0.00 0.00 51 1016.5